Time,TemperatureF,DewpointF,PressureIn,WindDirection,WindDirectionDegrees,WindSpeedMPH,WindSpeedGustMPH,Humidity,HourlyPrecipIn,Conditions,Clouds,dailyrainin,SoftwareType,DateUTC
2013-06-03 00:00:00,61.3,42.0,29.92,North,358,0.0,0.0,49,0.00,,,0.00,VWS V12.07,2013-06-03 05:00:00,
2013-06-03 00:30:00,61.3,42.0,29.92,North,358,0.0,0.0,49,0.00,,,0.00,VWS V12.07,2013-06-03 05:30:00,
2013-06-03 00:45:00,61.3,42.0,29.92,North,358,0.0,0.0,49,0.00,,,0.00,VWS V12.07,2013-06-03 05:45:00,
2013-06-03 01:00:00,61.3,42.0,29.92,North,358,0.0,0.0,49,0.00,,,0.00,VWS V12.07,2013-06-03 06:00:00,
2013-06-03 01:15:00,61.3,42.0,29.92,North,358,0.0,0.0,49,0.00,,,0.00,VWS V12.07,2013-06-03 06:15:00,
2013-06-03 01:30:00,61.3,42.0,29.92,North,358,0.0,0.0,49,0.00,,,0.00,VWS V12.07,2013-06-03 06:30:00,
2013-06-03 01:45:00,61.3,42.0,29.92,North,358,0.0,0.0,49,0.00,,,0.00,VWS V12.07,2013-06-03 06:45:00,
2013-06-03 02:00:00,61.3,42.0,29.91,North,358,0.0,0.0,49,0.00,,,0.00,VWS V12.07,2013-06-03 07:00:00,
2013-06-03 02:15:00,61.3,42.0,29.91,North,358,0.0,0.0,49,0.00,,,0.00,VWS V12.07,2013-06-03 07:15:00,
2013-06-03 02:30:00,61.3,42.0,29.91,North,358,0.0,0.0,49,0.00,,,0.00,VWS V12.07,2013-06-03 07:30:00,
2013-06-03 02:45:00,61.3,42.0,29.91,North,358,0.0,0.0,49,0.00,,,0.00,VWS V12.07,2013-06-03 07:45:00,
2013-06-03 03:00:00,61.3,42.0,29.91,North,358,0.0,0.0,49,0.00,,,0.00,VWS V12.07,2013-06-03 08:00:00,
2013-06-03 03:15:00,61.3,42.0,29.91,North,358,0.0,0.0,49,0.00,,,0.00,VWS V12.07,2013-06-03 08:15:00,
2013-06-03 03:30:00,61.3,42.0,29.91,North,358,0.0,0.0,49,0.00,,,0.00,VWS V12.07,2013-06-03 08:30:00,
2013-06-03 03:45:00,61.3,42.0,29.91,North,358,0.0,0.0,49,0.00,,,0.00,VWS V12.07,2013-06-03 08:45:00,
2013-06-03 04:00:00,61.3,42.0,29.91,North,358,0.0,0.0,49,0.00,,,0.00,VWS V12.07,2013-06-03 09:00:00,
2013-06-03 04:30:00,61.3,42.0,29.91,North,358,0.0,0.0,49,0.00,,,0.00,VWS V12.07,2013-06-03 09:30:00,
2013-06-03 04:45:00,61.3,42.0,29.91,North,358,0.0,0.0,49,0.00,,,0.00,VWS V12.07,2013-06-03 09:45:00,
2013-06-03 05:00:00,61.3,42.0,29.90,North,358,0.0,0.0,49,0.00,,,0.00,VWS V12.07,2013-06-03 10:00:00,
2013-06-03 05:30:00,61.3,42.0,29.92,North,358,0.0,0.0,49,0.00,,,0.00,VWS V12.07,2013-06-03 10:30:00,
2013-06-03 05:45:00,61.3,42.0,29.92,North,358,0.0,0.0,49,0.00,,,0.00,VWS V12.07,2013-06-03 10:45:00,
2013-06-03 06:00:00,61.3,42.0,29.92,North,358,0.0,0.0,49,0.00,,,0.00,VWS V12.07,2013-06-03 11:00:00,
2013-06-03 06:30:00,61.3,42.0,29.92,North,358,0.0,0.0,49,0.00,,,0.00,VWS V12.07,2013-06-03 11:30:00,
2013-06-03 06:45:00,61.3,42.0,29.93,North,358,0.0,0.0,49,0.00,,,0.00,VWS V12.07,2013-06-03 11:45:00,
2013-06-03 07:00:00,61.3,42.0,29.94,North,358,0.0,0.0,49,0.00,,,0.00,VWS V12.07,2013-06-03 12:00:00,
2013-06-03 07:30:00,61.3,42.0,29.94,North,358,0.0,0.0,49,0.00,,,0.00,VWS V12.07,2013-06-03 12:30:00,
2013-06-03 07:45:00,61.3,42.0,29.94,North,358,0.0,0.0,49,0.00,,,0.00,VWS V12.07,2013-06-03 12:45:00,
2013-06-03 08:00:00,61.3,42.0,29.94,North,358,0.0,0.0,49,0.00,,,0.00,VWS V12.07,2013-06-03 13:00:00,
2013-06-03 08:30:00,61.3,42.0,29.95,North,358,0.0,0.0,49,0.00,,,0.00,VWS V12.07,2013-06-03 13:30:00,
2013-06-03 08:45:00,61.3,42.0,29.95,North,358,0.0,0.0,49,0.00,,,0.00,VWS V12.07,2013-06-03 13:45:00,
2013-06-03 09:00:00,61.3,42.0,29.96,North,358,0.0,0.0,49,0.00,,,0.00,VWS V12.07,2013-06-03 14:00:00,
2013-06-03 09:30:00,61.3,42.0,29.96,North,358,0.0,0.0,49,0.00,,,0.00,VWS V12.07,2013-06-03 14:30:00,
2013-06-03 09:45:00,61.3,42.0,29.96,North,358,0.0,0.0,49,0.00,,,0.00,VWS V12.07,2013-06-03 14:45:00,
2013-06-03 10:00:00,61.3,42.0,29.96,North,358,0.0,0.0,49,0.00,,,0.00,VWS V12.07,2013-06-03 15:00:00,
2013-06-03 10:30:00,61.3,42.0,29.95,North,358,0.0,0.0,49,0.00,,,0.00,VWS V12.07,2013-06-03 15:30:00,
2013-06-03 10:45:00,61.3,42.0,29.95,North,358,0.0,0.0,49,0.00,,,0.00,VWS V12.07,2013-06-03 15:45:00,
2013-06-03 11:00:00,66.4,42.0,29.96,West,259,4.0,8.0,41,0.00,,,0.00,VWS V12.07,2013-06-03 16:00:00,
2013-06-03 11:30:00,68.9,37.8,29.93,North,358,8.0,8.0,32,0.00,,,0.00,VWS V12.07,2013-06-03 16:30:00,
2013-06-03 11:45:00,67.3,36.5,29.94,SSW,203,0.0,11.0,32,0.00,,,0.00,VWS V12.07,2013-06-03 16:45:00,
2013-06-03 12:00:00,69.1,38.8,29.94,SW,222,0.0,11.0,33,0.00,,,0.00,VWS V12.07,2013-06-03 17:00:00,
2013-06-03 12:30:00,68.1,37.2,29.93,North,350,0.0,10.0,32,0.00,,,0.00,VWS V12.07,2013-06-03 17:30:00,
2013-06-03 12:45:00,69.3,38.2,29.93,North,352,8.0,10.0,32,0.00,,,0.00,VWS V12.07,2013-06-03 17:45:00,
2013-06-03 13:00:00,69.3,38.2,29.92,SSW,202,4.0,12.0,32,0.00,,,0.00,VWS V12.07,2013-06-03 18:00:00,
2013-06-03 13:15:00,69.6,39.2,29.92,NNW,332,5.0,10.0,33,0.00,,,0.00,VWS V12.07,2013-06-03 18:15:00,
2013-06-03 13:30:00,69.8,37.8,29.91,WNW,290,7.0,10.0,31,0.00,,,0.00,VWS V12.07,2013-06-03 18:30:00,
2013-06-03 13:45:00,69.4,35.8,29.91,West,264,3.0,9.0,29,0.00,,,0.00,VWS V12.07,2013-06-03 18:45:00,
2013-06-03 14:00:00,68.9,37.8,29.91,NW,316,0.0,9.0,32,0.00,,,0.00,VWS V12.07,2013-06-03 19:00:00,
2013-06-03 14:15:00,69.9,37.1,29.90,North,0,0.0,6.0,30,0.00,,,0.00,VWS V12.07,2013-06-03 19:15:00,
2013-06-03 14:30:00,70.3,38.3,29.90,NNW,342,0.0,7.0,31,0.00,,,0.00,VWS V12.07,2013-06-03 19:30:00,
2013-06-03 14:45:00,69.8,37.8,29.90,North,349,0.0,5.0,31,0.00,,,0.00,VWS V12.07,2013-06-03 19:45:00,
2013-06-03 15:00:00,70.9,38.0,29.90,NW,326,1.0,6.0,30,0.00,,,0.00,VWS V12.07,2013-06-03 20:00:00,
2013-06-03 15:15:00,68.9,37.8,29.90,North,354,1.0,5.0,32,0.00,,,0.00,VWS V12.07,2013-06-03 20:15:00,
2013-06-03 15:30:00,69.6,38.5,29.90,NW,316,3.0,11.0,32,0.00,,,0.00,VWS V12.07,2013-06-03 20:30:00,
2013-06-03 15:45:00,69.1,38.0,29.90,WNW,302,0.0,4.0,32,0.00,,,0.00,VWS V12.07,2013-06-03 20:45:00,
2013-06-03 16:00:00,68.9,38.6,29.90,NNW,344,1.0,9.0,33,0.00,,,0.00,VWS V12.07,2013-06-03 21:00:00,
2013-06-03 16:30:00,69.6,39.2,29.88,West,280,0.0,5.0,33,0.00,,,0.00,VWS V12.07,2013-06-03 21:30:00,
2013-06-03 16:45:00,70.1,39.7,29.88,WNW,292,0.0,4.0,33,0.00,,,0.00,VWS V12.07,2013-06-03 21:45:00,
2013-06-03 17:00:00,70.3,38.3,29.88,NW,321,0.0,6.0,31,0.00,,,0.00,VWS V12.07,2013-06-03 22:00:00,
2013-06-03 17:30:00,69.4,39.8,29.88,NW,309,0.0,6.0,34,0.00,,,0.00,VWS V12.07,2013-06-03 22:30:00,
2013-06-03 17:45:00,69.3,39.8,29.88,NW,309,0.0,3.0,34,0.00,,,0.00,VWS V12.07,2013-06-03 22:45:00,
2013-06-03 18:00:00,69.4,39.8,29.87,NW,309,0.0,3.0,34,0.00,,,0.00,VWS V12.07,2013-06-03 23:00:00,
2013-06-03 18:30:00,68.6,38.4,29.87,West,269,2.0,5.0,33,0.00,,,0.00,VWS V12.07,2013-06-03 23:30:00,
2013-06-03 18:45:00,68.1,38.7,29.87,West,264,0.0,5.0,34,0.00,,,0.00,VWS V12.07,2013-06-03 23:45:00,
2013-06-03 19:00:00,67.8,39.2,29.88,SW,236,2.0,5.0,35,0.00,,,0.00,VWS V12.07,2013-06-04 00:00:00,
2013-06-03 19:30:00,66.9,39.8,29.87,SSW,196,2.0,6.0,37,0.00,,,0.00,VWS V12.07,2013-06-04 00:30:00,
2013-06-03 19:45:00,66.8,40.4,29.87,SSW,196,0.0,5.0,38,0.00,,,0.00,VWS V12.07,2013-06-04 00:45:00,
2013-06-03 20:00:00,66.8,41.1,29.87,SSW,196,0.0,5.0,39,0.00,,,0.00,VWS V12.07,2013-06-04 01:00:00,
2013-06-03 20:30:00,66.8,41.1,29.90,SSW,196,0.0,0.0,39,0.00,,,0.00,VWS V12.07,2013-06-04 01:30:00,
2013-06-03 20:45:00,66.8,41.1,29.91,SSW,196,0.0,0.0,39,0.00,,,0.00,VWS V12.07,2013-06-04 01:45:00,
2013-06-03 21:00:00,66.8,41.1,29.92,SSW,196,0.0,0.0,39,0.00,,,0.00,VWS V12.07,2013-06-04 02:00:00,
2013-06-03 21:15:00,66.8,41.1,29.92,SSW,196,0.0,0.0,39,0.00,,,0.00,VWS V12.07,2013-06-04 02:15:00,
2013-06-03 21:30:00,66.8,41.1,29.93,SSW,196,0.0,0.0,39,0.00,,,0.00,VWS V12.07,2013-06-04 02:30:00,
2013-06-03 21:45:00,66.8,41.1,29.94,SSW,196,0.0,0.0,39,0.00,,,0.00,VWS V12.07,2013-06-04 02:45:00,
2013-06-03 22:00:00,66.8,41.1,29.95,SSW,196,0.0,0.0,39,0.00,,,0.00,VWS V12.07,2013-06-04 03:00:00,
2013-06-03 22:30:00,66.8,41.1,29.97,SSW,196,0.0,0.0,39,0.00,,,0.00,VWS V12.07,2013-06-04 03:30:00,
2013-06-03 22:45:00,66.8,41.1,29.97,SSW,196,0.0,0.0,39,0.00,,,0.00,VWS V12.07,2013-06-04 03:45:00,
2013-06-03 23:00:00,66.8,41.1,29.95,SSW,196,0.0,0.0,39,0.00,,,0.00,VWS V12.07,2013-06-04 04:00:00,
2013-06-03 23:30:00,66.8,41.1,29.96,SSW,196,0.0,0.0,39,0.00,,,0.00,VWS V12.07,2013-06-04 04:30:00,
2013-06-03 23:45:00,66.8,41.1,29.96,SSW,196,0.0,0.0,39,0.00,,,0.00,VWS V12.07,2013-06-04 04:45:00,